Hourly Data Report for November 11, 2019

All times are specified in Local Standard Time (LST). Add 1 hour to adjust for Daylight Saving Time where and when it is observed.

WOODSTOCK NEWBRIDGE
NEW BRUNSWICK
Current Station Operator: ECCC - MSC

46°09'08.000" N
67°32'34.000" W
154.00 m
8105603
71606
EWD

Download Data

Hourly Data (November 2019)
Hourly Data Report for November 11, 2019
TIME Temp Definition
°C
Dew Point Definition
°C
Rel Hum Definition
%
Wind Dir Definition
10's deg

Wind Spd Definition
km/h
Visibility Definition
km
Stn Press Definition
kPa
Hmdx Definition


Wind Chill Definition


Weather Definition


00:00 2.2 -3.5 66 19 3   99.47     LegendNANA
01:00 2.3 -3.4 66 22 7   99.52     LegendNANA
02:00 1.3 -2.4 76 19 2   99.55     LegendNANA
03:00 1.6 -2.9 72 26 4   99.63     LegendNANA
04:00 1.9 -2.6 72 29 5   99.71     LegendNANA
05:00 -0.2 -3.1 81 32 11   99.83   -4 LegendNANA
06:00 -2.2 -8.1 64 32 14   99.98   -7 LegendNANA
07:00 -3.1 -9.8 60 31 11   100.10   -7 LegendNANA
08:00 -3.8 -12.2 52 30 12   100.24   -8 LegendNANA
09:00 -4.3 -13.5 49 31 9   100.35   -8 LegendNANA
10:00 -4.6 -13.4 50 32 13   100.38   -10 LegendNANA
11:00 -4.2 -13.4 49 31 8   100.47   -8 LegendNANA
12:00 -3.4 -12.4 50 33 9   100.46   -7 LegendNANA
13:00 -2.5 -12.0 48 31 9   100.48   -6 LegendNANA
14:00 -2.0 -11.9 47 31 9   100.52   -5 LegendNANA
15:00 -2.6 -11.8 49 35 8   100.54   -6 LegendNANA
16:00 -3.0 -12.4 48 36 7   100.58   -6 LegendNANA
17:00 -3.3 -12.6 49 35 6   100.61   -6 LegendNANA
18:00 -3.5 -12.9 48 36 6   100.68   -6 LegendNANA
19:00 -3.6 -12.7 49 2 3   100.69   -5 LegendNANA
20:00 -4.1 -11.7 55 1 6   100.69   -7 LegendNANA
21:00 -5.4 -8.7 78 5 5   100.71   -8 LegendNANA
22:00 -5.7 -7.7 86 4 6   100.60   -9 LegendNANA
23:00 -5.7 -7.9 85 4 5   100.52   -8 LegendNANA

Notes on Data Quality.

Legend

  • E = Estimated
  • M = Missing
  • NA = Not Available
Date modified: